This is the latest recevied weather packets stored in our database for station/object KB1JLI. If no packets are shown the sender has not sent any weather packets the latest 1 day(s).
| Time | Temp. | Humidity | Pressure | Rain* | Wind** | Luminosity | Snow |
|---|---|---|---|---|---|---|---|
| 1778042908 | 18.33° C | 65% | 1009.7 hPa | 0 mm | 0.45 m/s, 213° | 0 W/m² | - |
| 1778042606 | 18.33° C | 65% | 1009.7 hPa | 0 mm | 1.79 m/s, 204° | 0 W/m² | - |
| 1778042302 | 18.33° C | 64% | 1009.8 hPa | 0 mm | 0.45 m/s, 122° | 0 W/m² | - |
| 1778042000 | 18.33° C | 64% | 1009.9 hPa | 0 mm | 0.45 m/s, 229° | 0 W/m² | - |
| 1778041698 | 18.33° C | 65% | 1009.9 hPa | 0 mm | 0.45 m/s, 33° | 0 W/m² | - |
| 1778041397 | 18.33° C | 64% | 1009.9 hPa | 0 mm | 2.24 m/s, 185° | 0 W/m² | - |
| 1778041095 | 18.33° C | 64% | 1009.9 hPa | 0 mm | 0.89 m/s, 326° | 0 W/m² | - |
| 1778040792 | 18.33° C | 64% | 1009.9 hPa | 0 mm | 1.34 m/s, 167° | 0 W/m² | - |
| 1778040489 | 17.78° C | 64% | 1009.9 hPa | 0 mm | 1.79 m/s, 165° | 0 W/m² | - |
| 1778040186 | 17.78° C | 64% | 1009.7 hPa | 0 mm | 0.89 m/s, 31° | 0 W/m² | - |
| 1778039882 | 18.33° C | 64% | 1010 hPa | 0 mm | 0.89 m/s, 207° | 0 W/m² | - |
| 1778039579 | 17.78° C | 64% | 1009.7 hPa | 0 mm | 2.68 m/s, 241° | 0 W/m² | - |
| 1778039277 | 18.33° C | 64% | 1010 hPa | 0 mm | 0.89 m/s, 187° | 0 W/m² | - |
| 1778038974 | 18.33° C | 62% | 1009.9 hPa | 0 mm | 0 m/s | 0 W/m² | - |
| 1778038670 | 18.33° C | 63% | 1009.8 hPa | 0 mm | 0.45 m/s, 192° | 0 W/m² | - |
| 1778038368 | 18.33° C | 62% | 1010 hPa | 0 mm | 0.45 m/s, 155° | 0 W/m² | - |
| 1778038065 | 18.33° C | 62% | 1009.9 hPa | 0 mm | 0.45 m/s, 33° | 0 W/m² | - |
| 1778037762 | 18.33° C | 62% | 1010 hPa | 0 mm | 0.45 m/s, 221° | 0 W/m² | - |
| 1778037458 | 18.33° C | 61% | 1009.8 hPa | 0 mm | 0.89 m/s, 56° | 0 W/m² | - |
| 1778037156 | 18.89° C | 61% | 1009.8 hPa | 0 mm | 1.79 m/s, 212° | 0 W/m² | - |
| 1778036853 | 18.89° C | 60% | 1010 hPa | 0 mm | 2.24 m/s, 213° | 0 W/m² | - |
| 1778036550 | 18.89° C | 60% | 1009.9 hPa | 0 mm | 1.34 m/s, 3° | 0 W/m² | - |
| 1778036242 | 18.89° C | 59% | 1010 hPa | 0 mm | 0 m/s | 0 W/m² | - |
| 1778035938 | 18.89° C | 59% | 1009.9 hPa | 0 mm | 0 m/s | 0 W/m² | - |
| 1778035635 | 18.89° C | 59% | 1010.1 hPa | 0 mm | 0.89 m/s, 121° | 0 W/m² | - |
* Rain latest hour (hover to see other rain measurements)
** Current wind speed in m/s (hover to see current wind gust speed)